Location: *
(51.4660°N, 0.3360°W)
Time: 11:43:33
(UTC+00:00)

Cosmos 2237 Rocket - Pass Details

Date: 19 September 2019
Orbit: 833 x 851 km, 71.0° (Epoch: 13 October)

Event Time Altitude Azimuth Distance (km) Brightness Sun altitude
Rises 19:24:54 0° 329° (NNW) 3,426 6.2 -12.7°
Reaches altitude 10° 19:27:21 10° 329° (NNW) 2,488 5.4 -13.0°
Maximum altitude 19:33:05 86° 243° (WSW) 861 2.2 -13.9°
Enters shadow 19:38:31 11° 154° (SSE) 2,371 4.1 -14.7°
